When you browse on this site, cookies collect data to enhance your experience and personalize the content and advertising you see.
Visit our Privacy Policy to learn more. By continuing to use the site, you agree to this use of cookies and data.
  • In Hungary
  • List of Countries
  • For 7 days
  • Water Temperature
  • Weather Map
  • News
  • Weather Widgets
  • user-avatar
    Login

    Hourly Weather Kruglica

    Today, 25 August, Sunday

    Time Temperature Precipitation Wind Pressure Humidity
    00:00 +15°C° 0 mm 2 mps 751 mmHg 82%
    01:00 +15°C° 0 mm 2 mps 751 mmHg 86%
    02:00 +15°C° 0 mm 2 mps 752 mmHg 88%
    03:00 +14°C° 0 mm 2 mps 752 mmHg 90%
    04:00 +14°C° 0 mm 2 mps 752 mmHg 91%
    05:00 +14°C° 0 mm 2 mps 752 mmHg 93%
    06:00 +16°C° 0 mm 2 mps 752 mmHg 87%
    07:00 +17°C° 0 mm 2 mps 752 mmHg 81%
    08:00 +19°C° 0 mm 3 mps 753 mmHg 75%
    09:00 +20°C° 0 mm 3 mps 753 mmHg 69%
    10:00 +21°C° 0 mm 3 mps 753 mmHg 63%
    11:00 +22°C° 0 mm 3 mps 753 mmHg 58%
    12:00 +24°C° 0 mm 3 mps 753 mmHg 56%
    13:00 +24°C° 0 mm 3 mps 753 mmHg 55%
    14:00 +24°C° 0 mm 3 mps 753 mmHg 53%
    15:00 +24°C° 0 mm 3 mps 753 mmHg 57%
    16:00 +22°C° 0 mm 3 mps 753 mmHg 61%
    17:00 +23°C° 0 mm 2 mps 753 mmHg 65%
    18:00 +20°C° 0 mm 2 mps 753 mmHg 69%
    19:00 +18°C° 0 mm 2 mps 753 mmHg 74%
    20:00 +17°C° 0 mm 2 mps 754 mmHg 79%
    21:00 +16°C° 0 mm 2 mps 754 mmHg 82%
    22:00 +15°C° 0 mm 2 mps 754 mmHg 84%
    23:00 +15°C° 0 mm 1 mps 754 mmHg 87%

    Tomorrow, 26 August, Monday

    Time Temperature Precipitation Wind Pressure Humidity
    00:00 +14°C° 0 mm 1 mps 754 mmHg 88%
    01:00 +14°C° 0 mm 1 mps 754 mmHg 89%
    02:00 +14°C° 0 mm 1 mps 755 mmHg 90%
    03:00 +13°C° 0 mm 1 mps 755 mmHg 90%
    04:00 +13°C° 0 mm 1 mps 754 mmHg 91%
    05:00 +13°C° 0 mm 1 mps 754 mmHg 91%
    06:00 +14°C° 0 mm 1 mps 754 mmHg 85%
    07:00 +16°C° 0 mm 1 mps 755 mmHg 78%
    08:00 +19°C° 0 mm 1 mps 755 mmHg 72%
    09:00 +20°C° 0 mm 1 mps 755 mmHg 66%
    10:00 +21°C° 0 mm 1 mps 754 mmHg 61%
    11:00 +23°C° 0 mm 1 mps 754 mmHg 56%
    12:00 +23°C° 0 mm 1 mps 754 mmHg 53%
    13:00 +24°C° 0 mm 1 mps 754 mmHg 51%
    14:00 +24°C° 0 mm 1 mps 754 mmHg 48%
    15:00 +24°C° 0 mm 1 mps 753 mmHg 51%
    16:00 +24°C° 0 mm 1 mps 753 mmHg 55%
    17:00 +23°C° 0 mm 1 mps 752 mmHg 58%
    18:00 +21°C° 0 mm 1 mps 752 mmHg 61%
    19:00 +20°C° 0 mm 1 mps 752 mmHg 65%
    20:00 +18°C° 0 mm 1 mps 752 mmHg 69%
    21:00 +16°C° 0 mm 1 mps 752 mmHg 71%
    22:00 +16°C° 0 mm 1 mps 752 mmHg 73%
    23:00 +16°C° 0 mm 2 mps 752 mmHg 76%

    Day after tomorrow, 27 August, Tuesday

    Time Temperature Precipitation Wind Pressure Humidity
    00:00 +15°C° 0 mm 2 mps 751 mmHg 78%
    01:00 +15°C° 0 mm 2 mps 751 mmHg 80%
    02:00 +14°C° 0 mm 2 mps 751 mmHg 83%
    03:00 +14°C° 0 mm 2 mps 751 mmHg 84%
    04:00 +14°C° 0 mm 2 mps 750 mmHg 86%
    05:00 +13°C° 0 mm 3 mps 750 mmHg 87%
    06:00 +16°C° 0 mm 3 mps 750 mmHg 83%
    07:00 +17°C° 0 mm 4 mps 750 mmHg 78%
    08:00 +19°C° 0 mm 4 mps 750 mmHg 73%
    09:00 +20°C° 0 mm 4 mps 749 mmHg 70%
    10:00 +22°C° 0 mm 5 mps 749 mmHg 67%
    11:00 +23°C° 0 mm 5 mps 749 mmHg 64%
    12:00 +23°C° 0.2 mm 5 mps 749 mmHg 63%
    13:00 +23°C° 0.2 mm 5 mps 749 mmHg 62%
    14:00 +23°C° 0.2 mm 5 mps 748 mmHg 61%
    15:00 +23°C° 0.1 mm 5 mps 748 mmHg 64%
    16:00 +22°C° 0.1 mm 4 mps 748 mmHg 67%
    17:00 +21°C° 0.1 mm 4 mps 748 mmHg 70%
    18:00 +20°C° 0 mm 4 mps 748 mmHg 71%
    19:00 +18°C° 0 mm 4 mps 748 mmHg 72%
    20:00 +15°C° 0 mm 4 mps 749 mmHg 73%
    21:00 +14°C° 0 mm 3 mps 749 mmHg 76%
    22:00 +14°C° 0 mm 3 mps 749 mmHg 79%
    23:00 +13°C° 0 mm 3 mps 749 mmHg 82%

    28 August, Wednesday

    Time Temperature Precipitation Wind Pressure Humidity
    00:00 +12°C° 0 mm 3 mps 749 mmHg 84%
    01:00 +12°C° 0 mm 3 mps 749 mmHg 86%
    02:00 +13°C° 0 mm 2 mps 750 mmHg 88%
    03:00 +11°C° 0 mm 3 mps 750 mmHg 91%
    04:00 +11°C° 0 mm 3 mps 750 mmHg 93%
    05:00 +11°C° 0 mm 3 mps 750 mmHg 95%
    06:00 +12°C° 0 mm 4 mps 750 mmHg 87%
    07:00 +13°C° 0 mm 4 mps 751 mmHg 79%
    08:00 +14°C° 0 mm 5 mps 751 mmHg 71%
    09:00 +14°C° 0 mm 5 mps 751 mmHg 66%
    10:00 +15°C° 0 mm 5 mps 751 mmHg 62%
    11:00 +16°C° 0 mm 5 mps 751 mmHg 57%
    12:00 +16°C° 0 mm 5 mps 751 mmHg 55%
    13:00 +17°C° 0 mm 5 mps 751 mmHg 53%
    14:00 +17°C° 0 mm 5 mps 751 mmHg 50%
    15:00 +17°C° 0 mm 4 mps 751 mmHg 53%
    16:00 +17°C° 0 mm 4 mps 751 mmHg 56%
    17:00 +15°C° 0 mm 4 mps 751 mmHg 59%
    18:00 +14°C° 0 mm 3 mps 751 mmHg 64%
    19:00 +12°C° 0 mm 3 mps 752 mmHg 68%
    20:00 +10°C° 0 mm 3 mps 752 mmHg 73%
    21:00 +10°C° 0 mm 3 mps 752 mmHg 76%
    22:00 +9°C° 0 mm 2 mps 752 mmHg 79%
    23:00 +8°C° 0 mm 2 mps 753 mmHg 82%

    29 August, Thursday

    Time Temperature Precipitation Wind Pressure Humidity
    00:00 +8°C° 0 mm 2 mps 753 mmHg 84%
    01:00 +7°C° 0 mm 2 mps 753 mmHg 86%
    02:00 +7°C° 0 mm 2 mps 753 mmHg 89%
    03:00 +7°C° 0 mm 2 mps 753 mmHg 90%
    04:00 +6°C° 0 mm 2 mps 753 mmHg 92%
    05:00 +6°C° 0 mm 2 mps 754 mmHg 93%
    06:00 +7°C° 0 mm 2 mps 754 mmHg 85%
    07:00 +9°C° 0 mm 3 mps 754 mmHg 78%
    08:00 +11°C° 0 mm 3 mps 754 mmHg 70%
    09:00 +12°C° 0 mm 3 mps 754 mmHg 65%
    10:00 +13°C° 0 mm 3 mps 754 mmHg 59%
    11:00 +15°C° 0 mm 4 mps 754 mmHg 53%
    12:00 +16°C° 0 mm 3 mps 753 mmHg 51%
    13:00 +17°C° 0 mm 3 mps 753 mmHg 48%
    14:00 +18°C° 0 mm 3 mps 753 mmHg 46%
    15:00 +17°C° 0 mm 3 mps 753 mmHg 51%
    16:00 +17°C° 0 mm 3 mps 753 mmHg 55%
    17:00 +16°C° 0 mm 2 mps 752 mmHg 60%
    18:00 +15°C° 0 mm 2 mps 752 mmHg 65%
    19:00 +13°C° 0 mm 2 mps 753 mmHg 70%
    20:00 +12°C° 0 mm 1 mps 753 mmHg 75%
    21:00 +11°C° 0 mm 1 mps 753 mmHg 77%
    22:00 +11°C° 0 mm 1 mps 753 mmHg 79%
    23:00 +11°C° 0 mm 1 mps 753 mmHg 82%

    30 August, Friday

    Time Temperature Precipitation Wind Pressure Humidity
    00:00 +10°C° 0 mm 1 mps 753 mmHg 83%
    01:00 +10°C° 0 mm 1 mps 753 mmHg 84%
    02:00 +10°C° 0 mm 1 mps 753 mmHg 86%
    03:00 +10°C° 0 mm 1 mps 753 mmHg 87%
    04:00 +9°C° 0 mm 1 mps 752 mmHg 87%
    05:00 +9°C° 0 mm 1 mps 752 mmHg 88%
    06:00 +10°C° 0 mm 2 mps 752 mmHg 81%
    07:00 +13°C° 0 mm 2 mps 752 mmHg 75%
    08:00 +15°C° 0 mm 2 mps 753 mmHg 69%
    09:00 +17°C° 0 mm 2 mps 753 mmHg 65%
    10:00 +18°C° 0 mm 3 mps 753 mmHg 61%
    11:00 +20°C° 0 mm 3 mps 753 mmHg 58%
    12:00 +20°C° 0 mm 3 mps 752 mmHg 57%
    13:00 +21°C° 0 mm 3 mps 752 mmHg 56%
    14:00 +21°C° 0 mm 3 mps 752 mmHg 54%
    15:00 +21°C° 0 mm 2 mps 752 mmHg 58%
    16:00 +20°C° 0 mm 2 mps 752 mmHg 62%
    17:00 +20°C° 0 mm 2 mps 752 mmHg 66%
    18:00 +18°C° 0 mm 2 mps 752 mmHg 73%
    19:00 +16°C° 0 mm 2 mps 753 mmHg 81%
    20:00 +13°C° 0 mm 3 mps 753 mmHg 88%
    21:00 +12°C° 0 mm 3 mps 753 mmHg 90%
    22:00 +12°C° 0 mm 3 mps 754 mmHg 92%
    23:00 +11°C° 0 mm 3 mps 754 mmHg 94%
    Show more